Location: Skymont Scout Reservation
(35.4344°N, 85.8742°W)
Time: 08:34:09
(UTC-05:00)

ISS - All Passes

Search period start: 16 August 2017 00:00
Search period end: 26 August 2017 00:00
Orbit: 401 x 408 km, 51.6° (Epoch: 16 August)

Date Brightness Start Highest point End Pass type
(mag) Time Alt. Az. Time Alt. Az. Time Alt. Az.
16 Aug - 11:14:58 10° SSW 11:18:04 41° SE 11:21:11 10° ENE daylight
16 Aug - 12:52:13 10° W 12:54:40 19° NNW 12:57:07 10° NNE daylight
16 Aug - 17:45:45 10° NNW 17:47:58 17° NNE 17:50:09 10° ENE daylight
16 Aug - 19:21:28 10° WNW 19:24:38 52° SW 19:27:48 10° SSE daylight
17 Aug - 10:23:29 10° S 10:25:56 20° SE 10:28:22 10° E daylight
17 Aug - 11:59:15 10° WSW 12:02:14 32° NW 12:05:14 10° NNE daylight
17 Aug - 16:54:25 10° N 16:55:25 11° NNE 16:56:24 10° NE daylight
17 Aug - 18:29:09 10° NW 18:32:24 69° NE 18:35:38 10° SE daylight
18 Aug - 11:06:38 10° SW 11:09:53 66° NW 11:13:09 10° NE daylight
18 Aug - 12:46:00 10° NW 12:46:54 11° NNW 12:47:48 10° N daylight
18 Aug - 17:37:03 10° NNW 17:40:04 33° NE 17:43:03 10° ESE daylight
18 Aug - 19:14:00 10° W 19:16:20 18° SW 19:18:40 10° S daylight
19 Aug - 10:14:25 10° SSW 10:17:37 55° SE 10:20:50 10° ENE daylight
19 Aug - 11:52:09 10° WNW 11:54:19 16° NNW 11:56:30 10° NNE daylight
19 Aug - 16:45:08 10° NNW 16:47:36 20° NNE 16:50:04 10° E daylight
19 Aug - 18:21:07 10° WNW 18:24:11 39° SW 18:27:14 10° SSE daylight
20 Aug - 09:22:40 10° S 09:25:25 25° SE 09:28:10 10° ENE daylight
20 Aug - 10:58:59 10° W 11:01:49 27° NW 11:04:40 10° NNE daylight
20 Aug - 15:53:31 10° N 15:55:03 13° NNE 15:56:35 10° NE daylight
20 Aug - 17:28:40 10° NW 17:31:56 89° SW 17:35:11 10° SE daylight
21 Aug - 08:31:53 10° SSE 08:33:17 12° SE 08:34:42 10° ESE daylight
21 Aug - 10:06:12 10° WSW 10:09:24 50° NW 10:12:37 10° NE daylight
21 Aug - 16:36:27 10° NW 16:39:35 42° NE 16:42:42 10° ESE daylight
21 Aug - 18:13:55 10° W 18:15:46 14° SW 18:17:37 10° SSW daylight
22 Aug - 09:13:48 10° SW 09:17:04 74° SE 09:20:20 10° NE daylight
22 Aug - 10:52:01 10° WNW 10:53:52 14° NNW 10:55:44 10° N daylight
22 Aug - 15:44:25 10° NNW 15:47:08 23° NNE 15:49:49 10° E daylight
22 Aug - 17:20:43 10° WNW 17:23:36 30° SW 17:26:28 10° SSE daylight
23 Aug - 08:21:50 10° SSW 08:24:48 32° SE 08:27:47 10° ENE daylight
23 Aug - 09:58:39 10° W 10:01:18 22° NNW 10:03:58 10° NNE daylight
23 Aug - 14:52:38 10° N 14:54:34 15° NNE 14:56:30 10° ENE daylight
23 Aug - 16:28:06 10° NW 16:31:20 68° SW 16:34:33 10° SE daylight
24 Aug - 07:30:32 10° SSE 07:32:36 16° SE 07:34:41 10° E daylight
24 Aug - 09:05:42 10° WSW 09:08:49 39° NW 09:11:56 10° NE daylight
24 Aug - 15:35:46 10° NW 15:38:59 54° NE 15:42:10 10° ESE daylight
24 Aug - 17:14:03 10° WSW 17:15:04 11° SW 17:16:05 10° SW daylight
25 Aug - 08:13:08 10° SW 08:16:25 84° NW 08:19:42 10° NE daylight
25 Aug - 09:51:52 10° NW 09:53:19 12° NNW 09:54:46 10° N daylight
25 Aug - 14:43:39 10° NNW 14:46:31 28° NE 14:49:24 10° E daylight
25 Aug - 16:20:14 10° WNW 16:22:53 23° SW 16:25:32 10° S daylight
